SHT9D EGPH-EGLL

Flight info

Callsign SHT9D
Flight time 0h 58m
Altitude 31000
Route GOSAM P600 FENIK L612 NAVSO DCT AKOMU DCT VAMEB DCT NUGRA
Aircraft A320/M-SDE3FGHIRWY/LB1

Departure

Time 2026-04-21 14:54
Airport Edinburgh Airport (EGPH)

Arrival

Time 2026-04-21 15:53
Airport London Heathrow Airport (EGLL)
Time Latitude Longitude Altitude Speed Heading
2026-04-21 14:23 55.94854 -3.36604 116 ft 0 kts 145°
2026-04-21 14:30 55.94855 -3.36604 116 ft 0 kts 145°
2026-04-21 14:35 55.94855 -3.36605 116 ft 0 kts 145°
2026-04-21 14:41 55.94858 -3.36608 116 ft 3 kts 146°
2026-04-21 14:42 55.94866 -3.36618 113 ft 4 kts 147°
2026-04-21 14:42 55.94877 -3.36630 112 ft 4 kts 150°
2026-04-21 14:42 55.94901 -3.36651 112 ft 4 kts 165°
2026-04-21 14:42 55.94925 -3.36653 115 ft 4 kts 220°
2026-04-21 14:43 55.94930 -3.36646 115 ft 3 kts 239°
2026-04-21 14:43 55.94930 -3.36645 115 ft 0 kts 239°
2026-04-21 14:46 55.94925 -3.36660 116 ft 3 kts 239°
2026-04-21 14:47 55.94908 -3.36711 113 ft 7 kts 239°
2026-04-21 14:47 55.94902 -3.36802 116 ft 9 kts 301°
2026-04-21 14:47 55.94922 -3.36908 113 ft 11 kts 248°
2026-04-21 14:47 55.94879 -3.37034 115 ft 13 kts 238°
2026-04-21 14:48 55.94827 -3.37186 113 ft 15 kts 238°
2026-04-21 14:48 55.94767 -3.37359 114 ft 17 kts 238°
2026-04-21 14:48 55.94705 -3.37551 112 ft 19 kts 239°
2026-04-21 14:48 55.94633 -3.37759 115 ft 20 kts 238°
2026-04-21 14:49 55.94557 -3.37983 112 ft 22 kts 239°
2026-04-21 14:49 55.94474 -3.38228 112 ft 24 kts 238°
2026-04-21 14:49 55.94385 -3.38493 114 ft 26 kts 239°
2026-04-21 14:49 55.94302 -3.38736 114 ft 15 kts 238°
2026-04-21 14:50 55.94287 -3.38854 114 ft 15 kts 294°
2026-04-21 14:50 55.94324 -3.38907 113 ft 0 kts 329°
2026-04-21 14:51 55.94332 -3.38915 114 ft 3 kts 329°
2026-04-21 14:51 55.94359 -3.38944 113 ft 7 kts 329°
2026-04-21 14:51 55.94394 -3.38970 114 ft 9 kts 356°
2026-04-21 14:51 55.94439 -3.38889 114 ft 10 kts 57°
2026-04-21 14:52 55.94482 -3.38776 113 ft 0 kts 58°
2026-04-21 14:53 55.94490 -3.38753 112 ft 7 kts 59°
2026-04-21 14:54 55.94631 -3.38335 111 ft 72 kts 58°
2026-04-21 14:54 55.94982 -3.37303 112 ft 121 kts 59°
2026-04-21 14:54 55.95451 -3.35882 424 ft 137 kts 61°
2026-04-21 14:54 55.95994 -3.34376 870 ft 154 kts 53°
2026-04-21 14:55 55.96832 -3.32947 1165 ft 177 kts 43°
2026-04-21 14:55 55.97807 -3.31381 1460 ft 200 kts 44°
2026-04-21 14:55 55.98908 -3.29607 1852 ft 225 kts 45°
2026-04-21 14:55 56.00230 -3.28048 2533 ft 225 kts 27°
2026-04-21 14:56 56.01545 -3.26874 3236 ft 210 kts 33°
2026-04-21 14:56 56.02726 -3.25316 3952 ft 214 kts 49°
2026-04-21 14:56 56.03898 -3.23629 4650 ft 228 kts 26°
2026-04-21 14:56 56.05449 -3.23455 5384 ft 216 kts 346°
2026-04-21 14:57 56.06663 -3.24953 5935 ft 221 kts 315°
2026-04-21 14:57 56.07440 -3.27519 6189 ft 250 kts 283°
2026-04-21 14:57 56.07366 -3.30696 6554 ft 271 kts 247°
2026-04-21 14:57 56.06378 -3.33685 7082 ft 284 kts 231°
2026-04-21 14:58 56.05172 -3.36541 7882 ft 288 kts 228°
2026-04-21 14:58 56.03925 -3.39333 8707 ft 291 kts 227°
2026-04-21 14:58 56.02651 -3.42173 9554 ft 294 kts 230°
2026-04-21 14:58 56.01616 -3.45384 10369 ft 302 kts 245°
2026-04-21 14:59 56.00998 -3.49038 10907 ft 316 kts 253°
2026-04-21 14:59 56.00430 -3.52978 11107 ft 339 kts 253°
2026-04-21 14:59 55.99830 -3.57200 11381 ft 357 kts 254°
2026-04-21 14:59 55.99214 -3.61561 11990 ft 364 kts 254°
2026-04-21 15:00 55.98596 -3.65925 12646 ft 368 kts 253°
2026-04-21 15:00 55.97958 -3.70416 13311 ft 372 kts 254°
2026-04-21 15:00 55.97315 -3.74928 13953 ft 376 kts 254°
2026-04-21 15:00 55.96669 -3.79440 14585 ft 380 kts 254°
2026-04-21 15:01 55.95983 -3.84024 15153 ft 383 kts 249°
2026-04-21 15:01 55.94783 -3.88249 15691 ft 382 kts 231°
2026-04-21 15:01 55.92925 -3.91590 16229 ft 379 kts 212°
2026-04-21 15:01 55.90593 -3.93728 16752 ft 375 kts 194°
2026-04-21 15:02 55.88030 -3.94480 17304 ft 371 kts 176°
2026-04-21 15:02 55.85493 -3.94097 17851 ft 371 kts 170°
2026-04-21 15:02 55.82906 -3.93564 18425 ft 375 kts 169°
2026-04-21 15:02 55.80291 -3.93014 18957 ft 379 kts 169°
2026-04-21 15:03 55.77659 -3.92462 19475 ft 381 kts 170°
2026-04-21 15:03 55.75050 -3.91924 20003 ft 384 kts 170°
2026-04-21 15:03 55.72389 -3.91380 20533 ft 386 kts 170°
2026-04-21 15:03 55.69707 -3.90837 21062 ft 389 kts 170°
2026-04-21 15:04 55.66996 -3.90290 21568 ft 391 kts 170°
2026-04-21 15:04 55.64284 -3.89744 22063 ft 394 kts 171°
2026-04-21 15:04 55.61545 -3.89195 22544 ft 396 kts 171°
2026-04-21 15:04 55.58798 -3.88646 23018 ft 399 kts 171°
2026-04-21 15:05 55.56031 -3.88090 23491 ft 401 kts 171°
2026-04-21 15:05 55.50484 -3.86971 24355 ft 405 kts 171°
2026-04-21 15:05 55.47666 -3.86405 24740 ft 408 kts 171°
2026-04-21 15:06 55.44838 -3.85841 25119 ft 410 kts 171°
2026-04-21 15:06 55.42022 -3.85277 25497 ft 412 kts 171°
2026-04-21 15:06 55.39156 -3.84702 25867 ft 413 kts 172°
2026-04-21 15:06 55.36293 -3.84131 26206 ft 416 kts 172°
2026-04-21 15:07 55.33393 -3.83555 26542 ft 418 kts 172°
2026-04-21 15:07 55.30486 -3.82978 26891 ft 421 kts 172°
2026-04-21 15:07 55.27598 -3.82404 27235 ft 424 kts 172°
2026-04-21 15:07 55.24655 -3.81783 27565 ft 427 kts 170°
2026-04-21 15:08 55.21756 -3.80555 27912 ft 429 kts 161°
2026-04-21 15:08 55.18992 -3.78532 28230 ft 432 kts 154°
2026-04-21 15:08 55.16277 -3.76176 28537 ft 436 kts 154°
2026-04-21 15:08 55.13572 -3.73842 28832 ft 440 kts 154°
2026-04-21 15:09 55.10784 -3.71449 29135 ft 443 kts 155°
2026-04-21 15:09 55.08048 -3.69107 29544 ft 443 kts 155°
2026-04-21 15:09 55.05273 -3.66738 29950 ft 444 kts 155°
2026-04-21 15:09 55.02491 -3.64366 30342 ft 446 kts 156°
2026-04-21 15:10 54.99669 -3.61963 30673 ft 448 kts 156°
2026-04-21 15:10 54.96861 -3.59573 30989 ft 450 kts 156°
2026-04-21 15:10 54.94074 -3.57201 31309 ft 451 kts 156°
2026-04-21 15:10 54.91234 -3.54784 31436 ft 454 kts 156°
2026-04-21 15:11 54.85514 -3.49935 31464 ft 458 kts 156°
2026-04-21 15:11 54.79797 -3.45115 31454 ft 460 kts 156°
2026-04-21 15:12 54.74024 -3.40248 31451 ft 460 kts 156°
2026-04-21 15:12 54.68272 -3.35412 31450 ft 461 kts 156°
2026-04-21 15:13 54.62479 -3.30572 31441 ft 462 kts 156°
2026-04-21 15:13 54.56686 -3.25754 31427 ft 462 kts 156°
2026-04-21 15:14 54.50877 -3.20933 31415 ft 463 kts 156°
2026-04-21 15:14 54.45078 -3.16123 31412 ft 464 kts 156°
2026-04-21 15:15 54.39276 -3.11326 31407 ft 465 kts 157°
2026-04-21 15:15 54.33431 -3.06511 31404 ft 466 kts 157°
2026-04-21 15:16 54.27565 -3.01697 31399 ft 467 kts 157°
2026-04-21 15:16 54.21727 -2.96908 31392 ft 468 kts 157°
2026-04-21 15:17 54.15832 -2.92121 31387 ft 469 kts 158°
2026-04-21 15:17 54.09880 -2.87687 31380 ft 469 kts 160°
2026-04-21 15:18 54.03814 -2.83421 31376 ft 470 kts 161°
2026-04-21 15:18 53.97707 -2.79552 31363 ft 469 kts 166°
2026-04-21 15:19 53.91489 -2.76242 31358 ft 470 kts 166°
2026-04-21 15:19 53.85216 -2.72908 31358 ft 472 kts 167°
2026-04-21 15:20 53.78972 -2.69611 31356 ft 473 kts 167°
2026-04-21 15:20 53.72654 -2.66287 31356 ft 475 kts 167°
2026-04-21 15:21 53.66346 -2.62994 31353 ft 476 kts 167°
2026-04-21 15:21 53.60008 -2.59697 31356 ft 477 kts 167°
2026-04-21 15:22 53.53631 -2.56385 31353 ft 479 kts 167°
2026-04-21 15:22 53.47283 -2.53089 31355 ft 481 kts 167°
2026-04-21 15:23 53.40870 -2.49765 31355 ft 482 kts 168°
2026-04-21 15:23 53.34426 -2.46449 31356 ft 484 kts 168°
2026-04-21 15:24 53.28016 -2.43165 31361 ft 485 kts 168°
2026-04-21 15:24 53.21540 -2.39852 31363 ft 486 kts 168°
2026-04-21 15:25 53.15055 -2.36532 31363 ft 487 kts 168°
2026-04-21 15:25 53.08583 -2.33232 31362 ft 488 kts 168°
2026-04-21 15:26 53.02175 -2.29354 31356 ft 495 kts 157°
2026-04-21 15:26 52.96269 -2.23358 31352 ft 499 kts 151°
2026-04-21 15:27 52.90393 -2.17186 31357 ft 499 kts 151°
2026-04-21 15:27 52.84501 -2.11028 31358 ft 500 kts 151°
2026-04-21 15:28 52.78640 -2.04933 31008 ft 498 kts 151°
2026-04-21 15:28 52.75697 -2.01879 30142 ft 501 kts 151°
2026-04-21 15:28 52.72742 -1.98819 29388 ft 499 kts 150°
2026-04-21 15:29 52.69813 -1.95783 28834 ft 494 kts 150°
2026-04-21 15:29 52.66914 -1.92781 28289 ft 488 kts 150°
2026-04-21 15:29 52.64082 -1.89855 27747 ft 482 kts 150°
2026-04-21 15:29 52.61251 -1.86940 27218 ft 477 kts 150°
2026-04-21 15:30 52.58446 -1.84056 26703 ft 472 kts 150°
2026-04-21 15:30 52.55666 -1.81207 26181 ft 467 kts 150°
2026-04-21 15:30 52.52914 -1.78390 25670 ft 462 kts 149°
2026-04-21 15:30 52.50208 -1.75617 25168 ft 457 kts 149°
2026-04-21 15:31 52.47514 -1.72856 24669 ft 453 kts 149°
2026-04-21 15:31 52.44879 -1.70163 24183 ft 449 kts 149°
2026-04-21 15:31 52.42235 -1.67470 23656 ft 445 kts 149°
2026-04-21 15:31 52.39615 -1.64808 23151 ft 439 kts 149°
2026-04-21 15:32 52.37037 -1.62192 22686 ft 433 kts 148°
2026-04-21 15:32 52.34482 -1.59601 22258 ft 426 kts 148°
2026-04-21 15:32 52.32013 -1.57097 21809 ft 421 kts 148°
2026-04-21 15:32 52.29536 -1.54586 21410 ft 416 kts 148°
2026-04-21 15:33 52.27076 -1.52099 20954 ft 413 kts 148°
2026-04-21 15:33 52.24648 -1.49650 20512 ft 409 kts 148°
2026-04-21 15:33 52.22235 -1.47191 20058 ft 404 kts 145°
2026-04-21 15:33 52.20031 -1.44362 19612 ft 399 kts 138°
2026-04-21 15:34 52.17965 -1.41447 19186 ft 393 kts 138°
2026-04-21 15:34 52.15906 -1.38557 18761 ft 388 kts 138°
2026-04-21 15:34 52.13866 -1.35715 18270 ft 382 kts 138°
2026-04-21 15:34 52.12524 -1.33853 17944 ft 378 kts 138°
2026-04-21 15:35 52.09894 -1.30212 17302 ft 371 kts 138°
2026-04-21 15:35 52.07944 -1.27510 16813 ft 365 kts 138°
2026-04-21 15:35 52.06674 -1.25746 16496 ft 361 kts 138°
2026-04-21 15:35 52.04772 -1.23106 16025 ft 356 kts 138°
2026-04-21 15:36 52.02896 -1.20508 15562 ft 351 kts 138°
2026-04-21 15:36 52.01041 -1.17947 15050 ft 347 kts 137°
2026-04-21 15:36 51.99217 -1.15426 14605 ft 343 kts 137°
2026-04-21 15:36 51.97430 -1.12959 14161 ft 339 kts 137°
2026-04-21 15:37 51.95644 -1.10497 13693 ft 335 kts 137°
2026-04-21 15:37 51.93875 -1.08059 13208 ft 331 kts 137°
2026-04-21 15:37 51.92122 -1.05644 12727 ft 328 kts 137°
2026-04-21 15:37 51.90389 -1.03260 12259 ft 326 kts 137°
2026-04-21 15:38 51.88668 -1.00896 11787 ft 323 kts 137°
2026-04-21 15:38 51.86959 -0.98550 11340 ft 320 kts 137°
2026-04-21 15:38 51.85371 -0.96067 10886 ft 314 kts 125°
2026-04-21 15:38 51.84295 -0.93031 10443 ft 310 kts 114°
2026-04-21 15:39 51.83348 -0.89909 9976 ft 308 kts 114°
2026-04-21 15:39 51.82405 -0.86803 9490 ft 307 kts 114°
2026-04-21 15:39 51.81472 -0.83746 9021 ft 305 kts 114°
2026-04-21 15:39 51.80540 -0.80702 8537 ft 298 kts 114°
2026-04-21 15:40 51.79628 -0.77735 8093 ft 292 kts 114°
2026-04-21 15:40 51.78729 -0.74816 7634 ft 286 kts 114°
2026-04-21 15:40 51.77862 -0.72000 7338 ft 276 kts 114°
2026-04-21 15:40 51.77028 -0.69297 7306 ft 257 kts 114°
2026-04-21 15:41 51.76254 -0.66793 7311 ft 240 kts 114°
2026-04-21 15:41 51.75540 -0.64486 7311 ft 226 kts 114°
2026-04-21 15:41 51.74844 -0.62228 7314 ft 224 kts 113°
2026-04-21 15:41 51.74016 -0.59966 7318 ft 245 kts 129°
2026-04-21 15:42 51.72633 -0.58516 7381 ft 241 kts 159°
2026-04-21 15:42 51.70953 -0.58439 7275 ft 248 kts 190°
2026-04-21 15:42 51.69424 -0.59765 7045 ft 255 kts 222°
2026-04-21 15:42 51.68388 -0.62092 6800 ft 256 kts 239°
2026-04-21 15:43 51.67541 -0.64608 6542 ft 254 kts 240°
2026-04-21 15:43 51.66728 -0.67127 6276 ft 252 kts 241°
2026-04-21 15:43 51.65940 -0.69591 6014 ft 247 kts 241°
2026-04-21 15:43 51.65161 -0.72040 5748 ft 242 kts 241°
2026-04-21 15:44 51.64399 -0.74438 5484 ft 237 kts 241°
2026-04-21 15:44 51.63656 -0.76787 5205 ft 234 kts 241°
2026-04-21 15:44 51.62933 -0.79095 5035 ft 233 kts 241°
2026-04-21 15:44 51.62198 -0.81435 4983 ft 234 kts 241°
2026-04-21 15:45 51.61458 -0.83783 4987 ft 234 kts 240°
2026-04-21 15:45 51.60523 -0.85864 4741 ft 227 kts 212°
2026-04-21 15:45 51.59125 -0.86801 4436 ft 214 kts 180°
2026-04-21 15:45 51.57665 -0.86875 4156 ft 211 kts 172°
2026-04-21 15:46 51.56212 -0.86814 4020 ft 206 kts 171°
2026-04-21 15:46 51.54793 -0.86743 3887 ft 200 kts 171°
2026-04-21 15:46 51.53414 -0.86685 3749 ft 194 kts 171°
2026-04-21 15:46 51.52089 -0.86628 3585 ft 191 kts 171°
2026-04-21 15:47 51.50761 -0.86560 3366 ft 191 kts 171°
2026-04-21 15:47 51.49504 -0.86173 3153 ft 178 kts 141°
2026-04-21 15:47 51.48697 -0.84794 3042 ft 168 kts 116°
2026-04-21 15:47 51.48143 -0.83165 3025 ft 168 kts 112°
2026-04-21 15:48 51.47653 -0.81452 3009 ft 167 kts 101°
2026-04-21 15:48 51.47627 -0.79626 3013 ft 165 kts 87°
2026-04-21 15:48 51.47618 -0.77793 3032 ft 164 kts 88°
2026-04-21 15:48 51.47614 -0.75985 3035 ft 163 kts 87°
2026-04-21 15:49 51.47619 -0.74164 3033 ft 163 kts 87°
2026-04-21 15:49 51.47628 -0.72338 2986 ft 163 kts 87°
2026-04-21 15:49 51.47639 -0.70501 2838 ft 165 kts 88°
2026-04-21 15:49 51.47650 -0.68588 2633 ft 172 kts 87°
2026-04-21 15:50 51.47660 -0.66730 2398 ft 166 kts 87°
2026-04-21 15:50 51.47670 -0.64903 2166 ft 162 kts 88°
2026-04-21 15:50 51.47680 -0.63098 1943 ft 161 kts 87°
2026-04-21 15:50 51.47689 -0.61292 1720 ft 161 kts 87°
2026-04-21 15:51 51.47698 -0.59488 1500 ft 160 kts 86°
2026-04-21 15:51 51.47706 -0.57776 1278 ft 149 kts 87°
2026-04-21 15:51 51.47713 -0.56185 1083 ft 136 kts 87°
2026-04-21 15:51 51.47720 -0.54719 915 ft 129 kts 85°
2026-04-21 15:52 51.47727 -0.53279 733 ft 128 kts 88°
2026-04-21 15:52 51.47733 -0.51849 550 ft 129 kts 87°
2026-04-21 15:52 51.47740 -0.50400 371 ft 129 kts 89°
2026-04-21 15:52 51.47744 -0.48969 200 ft 128 kts 89°
2026-04-21 15:53 51.47750 -0.47581 87 ft 113 kts 89°
2026-04-21 15:53 51.47757 -0.46677 93 ft 51 kts 89°
2026-04-21 15:53 51.47756 -0.46376 91 ft 8 kts 90°
2026-04-21 15:53 51.47746 -0.46208 88 ft 21 kts 112°